Waarnemingen

Advertentie
Mijn weer
Agen, Frankrijk (7524): temperatuur & dauwpunt: 17.07.2017 08:00:00 - 23.07.2017 08:00:00 (CEST)Agen, Frankrijk (7524): temperatuur 5cm: 17.07.2017 08:00:00 - 23.07.2017 08:00:00 (CEST)Agen, Frankrijk (7524): temperatuur -20cm & temperatuur -100cm: 17.07.2017 08:00:00 - 23.07.2017 08:00:00 (CEST)Agen, Frankrijk (7524): windsnelheid & windstoten: 17.07.2017 08:00:00 - 23.07.2017 08:00:00 (CEST)Agen, Frankrijk (7524): windrichting: 17.07.2017 08:00:00 - 23.07.2017 08:00:00 (CEST)Agen, Frankrijk (7524): luchtdruk: 17.07.2017 08:00:00 - 23.07.2017 08:00:00 (CEST)Agen, Frankrijk (7524): zicht: 17.07.2017 08:00:00 - 23.07.2017 08:00:00 (CEST)Agen, Frankrijk (7524): Zonneschijnduur: 17.07.2017 08:00:00 - 23.07.2017 08:00:00 (CEST)Agen, Frankrijk (7524): neerslag: 17.07.2017 08:00:00 - 23.07.2017 08:00:00 (CEST)
Datum & Tijd tt [°C] td [°C] tt 5cm [°C] tt -20cm [°C] tt -100cm [°C] ff [km/u] ff [kn] fx [km/u] fx [kn] dd ppp [hPa] vv [km] sd [min] rr [mm]
23.07.2017 08:00:00 16,9 14,7 11,4 20,3 19,1 2 1 5 3 NO 1021,4 49 5 0,0
23.07.2017 07:00:00 15,4 13,4 11,1 20,3 19,1 0 0 5 3 N 1021,4 44 0 0,0
23.07.2017 06:00:00 16,3 13,6 13,3 20,4 19,1 5 3 9 5 NW 1021,1 20 0 0,0
23.07.2017 05:00:00 17,4 13,9 14,4 20,4 19,1 6 3 14 8 W 1020,8 60 0 0,0
23.07.2017 04:00:00 17,7 13,8 14,6 20,5 19,1 8 5 13 7 W 1020,8 60 0 0,0
23.07.2017 03:00:00 18,5 13,8 16,2 20,5 19,1 7 4 15 8 W 1020,9 60 0 0,0
23.07.2017 02:00:00 19,3 14,1 17,8 20,5 19,1 10 5 19 10 WNW 1020,7 60 0 0,0
23.07.2017 01:00:00 19,4 14,2 17,8 20,5 19,1 9 5 21 11 WNW 1020,3 51 0 0,0
23.07.2017 00:00:00 20,2 14,6 18,9 20,6 19,1 16 9 27 14 WNW 1020,0 60 0 0,0
22.07.2017 23:00:00 20,8 15,1 18,8 20,6 19,1 12 7 21 11 WNW 1019,3 54 0 0,0
22.07.2017 22:00:00 21,7 14,8 19,4 20,6 19,1 15 8 21 12 WNW 1018,1 58 0 0,0
22.07.2017 21:00:00 23,2 15,3 22,0 20,5 19,1 14 7 21 12 WNW 1017,2 50 5 0,0
22.07.2017 20:00:00 24,0 15,2 23,5 20,5 19,1 13 7 24 13 W 1016,5 47 29 0,0
22.07.2017 19:00:00 25,0 15,0 26,4 20,5 19,1 14 8 27 14 W 1016,2 36 10 0,0
22.07.2017 18:00:00 24,9 15,2 27,6 20,4 19,1 16 9 28 15 WNW 1015,6 50 18 0,0
22.07.2017 17:00:00 25,9 14,7 33,9 20,2 19,1 14 8 26 14 NW 1015,3 60 40 0,0
22.07.2017 16:00:00 26,1 15,8 33,1 20,2 19,1 10 5 21 12 NNW 1015,2 60 46 0,0
22.07.2017 15:00:00 25,3 14,7 36,5 20,1 19,1 7 4 21 11 WNW 1015,2 59 45 0,0
22.07.2017 14:00:00 24,8 14,6 34,4 20,1 19,1 8 4 16 9 WZW 1015,2 18 26 0,0
22.07.2017 13:00:00 24,2 15,1 38,6 20,1 19,1 9 5 19 10 NNW 1015,4 53 60 0,0
22.07.2017 12:00:00 23,3 14,0 29,6 20,1 19,1 7 4 13 7 ZZW 1015,5 53 48 0,0
22.07.2017 11:00:00 21,9 14,8 29,5 20,1 19,1 3 2 9 5 ZW 1015,5 20 30 0,0
22.07.2017 10:00:00 20,3 14,4 20,4 20,1 19,1 2 1 6 4 NNW 1015,7 56 35 0,0
22.07.2017 09:00:00 17,6 14,3 15,9 20,2 19,1 0 0 2 1 N 1015,5 20 14 0,0
22.07.2017 08:00:00 15,2 13,7 10,5 20,2 19,1 0 0 3 2 N 1015,3 34 0 0,0
22.07.2017 07:00:00 13,8 12,4 10,2 20,3 19,1 3 2 8 4 ZO 1015,0 39 0 0,0
22.07.2017 06:00:00 14,1 12,5 10,5 20,4 19,1 5 3 9 5 OZO 1014,8 47 0 0,0
22.07.2017 05:00:00 15,1 13,3 10,9 20,5 19,1 3 1 11 6 ZO 1014,9 49 0 0,0
22.07.2017 04:00:00 14,2 12,8 9,8 20,6 19,1 9 5 12 6 WNW 1014,8 40 0 0,0
22.07.2017 03:00:00 15,2 12,5 9,8 20,6 19,1 0 0 6 3 N 1015,0 50 0 0,0
22.07.2017 02:00:00 16,4 12,6 10,8 20,6 19,1 0 0 4 2 N 1014,8 58 0 0,0
22.07.2017 01:00:00 18,0 13,5 15,8 20,7 19,1 4 2 8 5 NW 1015,1 54 0 0,0
22.07.2017 00:00:00 18,7 13,1 17,1 20,7 19,1 6 3 10 5 W 1014,7 60 0 0,0
21.07.2017 23:00:00 19,1 12,6 17,6 20,7 19,1 5 3 13 7 W 1014,7 20 0 0,0
21.07.2017 22:00:00 19,2 12,5 18,0 20,7 19,0 9 5 18 10 WNW 1014,1 1,7 0 0,0
21.07.2017 21:00:00 19,6 12,8 19,0 20,7 19,1 12 6 24 13 WNW 1013,8 60 0 0,0
21.07.2017 20:00:00 20,6 13,3 21,3 20,7 19,0 16 9 23 13 NW 1013,1 60 4 0,0
21.07.2017 19:00:00 21,8 13,9 23,9 20,7 19,1 16 9 24 13 NW 1012,5 60 15 0,0
21.07.2017 18:00:00 22,9 15,2 28,1 20,6 19,0 19 10 29 16 NW 1012,5 60 29 0,0
21.07.2017 17:00:00 23,3 14,8 30,4 20,6 19,1 16 8 32 17 NW 1012,2 55 10 0,0
21.07.2017 16:00:00 23,3 14,6 31,5 20,5 19,0 9 5 17 9 NNW 1012,4 20 5 0,0
21.07.2017 15:00:00 23,4 14,7 - - - 8 4 18 10 W 1012,6 50 - 0,0
21.07.2017 14:00:00 22,5 14,3 32,3 20,5 19,1 3 2 14 8 NNO 1013,1 20 3 0,0
21.07.2017 13:00:00 21,2 14,4 21,2 20,5 19,0 4 2 11 6 - 1013,6 10 16 0,0
21.07.2017 12:00:00 18,4 13,5 19,8 20,5 19,0 2 1 13 7 ZO 1014,0 59 0 0,0
21.07.2017 11:00:00 17,7 14,4 17,5 20,6 19,0 9 5 11 6 N 1013,5 53 0 0,4
21.07.2017 10:00:00 16,7 13,6 15,8 20,6 19,0 5 3 9 5 WZW 1014,4 44 0 0,0
21.07.2017 09:00:00 16,8 13,1 15,9 20,7 19,0 5 3 11 6 W 1014,5 47 0 0,4
21.07.2017 08:00:00 17,6 12,3 16,7 20,7 19,0 6 3 10 5 NW 1014,3 60 0 0,0
21.07.2017 07:00:00 17,8 11,4 16,2 20,8 19,0 6 3 11 6 NO 1014,2 60 0 0,0
21.07.2017 06:00:00 17,5 11,7 16,2 20,8 19,1 4 2 12 7 NNW 1014,2 60 0 0,0
21.07.2017 05:00:00 17,8 12,0 16,4 20,9 19,0 7 4 16 9 NNW 1014,3 60 0 0,0
21.07.2017 04:00:00 18,1 12,5 16,7 20,9 19,0 6 3 16 8 N 1014,9 57 0 0,0
21.07.2017 03:00:00 18,0 13,9 15,1 21,0 19,0 8 4 11 6 WNW 1015,3 60 0 0,0
21.07.2017 02:00:00 17,9 14,2 14,4 21,0 19,0 5 3 10 5 W 1015,7 57 0 0,0
21.07.2017 01:00:00 19,0 14,0 16,7 21,0 19,0 6 3 9 5 WNW 1015,9 60 0 0,0
21.07.2017 00:00:00 19,5 14,5 17,8 21,1 19,0 6 4 8 5 WNW 1016,3 60 0 0,0
20.07.2017 23:00:00 19,8 14,4 17,9 21,1 19,0 5 3 9 5 WNW 1016,7 58 0 0,0
20.07.2017 22:00:00 20,4 14,3 18,4 21,1 19,0 6 3 13 7 WNW 1016,4 0,3 0 0,0
20.07.2017 21:00:00 21,0 14,9 20,0 21,1 19,0 10 5 14 7 WNW 1016,2 60 0 0,0
20.07.2017 20:00:00 21,5 14,6 21,2 21,1 19,0 10 5 20 11 NW 1016,2 59 0 0,0
20.07.2017 19:00:00 21,9 14,8 22,5 21,1 19,0 9 5 20 11 NW 1016,2 60 1 0,0
20.07.2017 18:00:00 23,0 16,1 23,7 21,1 19,0 13 7 27 15 NW 1016,3 60 4 0,0
20.07.2017 17:00:00 22,0 15,4 24,7 21,1 19,0 18 10 30 16 NW 1016,5 49 1 0,0
20.07.2017 16:00:00 22,8 15,1 25,1 21,2 19,0 13 7 22 12 NW 1016,5 51 1 0,0
20.07.2017 15:00:00 22,2 14,8 25,1 21,1 19,0 12 7 22 12 WNW 1016,8 57 0 0,0
20.07.2017 14:00:00 21,9 16,0 23,7 21,2 19,0 12 6 21 11 NW 1016,7 53 0 0,0
20.07.2017 13:00:00 21,2 15,7 22,1 21,2 18,9 16 8 21 11 WNW 1016,9 58 0 0,0
20.07.2017 12:00:00 21,0 16,0 21,8 21,2 19,0 12 6 22 12 NW 1016,7 60 0 0,0
20.07.2017 11:00:00 21,0 17,0 21,5 21,2 19,0 14 8 21 12 WNW 1016,5 41 0 0,0
20.07.2017 10:00:00 20,6 17,8 20,7 21,2 18,9 12 7 16 9 WNW 1016,5 20 2 0,0
20.07.2017 09:00:00 19,8 17,9 20,1 21,3 18,9 10 5 13 7 WNW 1016,5 17 0 0,0
20.07.2017 08:00:00 19,6 18,1 18,8 21,3 18,9 7 4 13 7 W 1016,1 12 0 0,0
20.07.2017 07:00:00 19,3 17,8 18,6 21,3 18,9 6 4 11 6 WZW 1016,0 10 0 0,2
20.07.2017 06:00:00 19,6 17,6 18,5 21,4 18,9 6 4 9 5 W 1015,8 6 0 0,4
20.07.2017 05:00:00 19,6 17,6 18,6 21,4 18,9 4 2 14 8 W 1015,7 15 0 0,0
20.07.2017 04:00:00 19,7 17,8 18,9 21,5 18,9 9 5 15 8 WNW 1015,7 14 0 0,0
20.07.2017 03:00:00 20,0 18,1 19,3 21,5 18,9 12 7 17 9 W 1015,5 15 0 0,0
20.07.2017 02:00:00 20,5 18,6 19,6 21,5 18,9 8 4 18 10 W 1015,7 15 0 0,0
20.07.2017 01:00:00 21,0 19,5 19,9 21,5 18,9 9 5 15 8 NW 1015,4 12 0 0,0
20.07.2017 00:00:00 21,0 18,9 19,8 21,6 18,9 5 3 13 7 WZW 1015,1 14 0 0,0
19.07.2017 23:00:00 21,2 19,7 20,4 21,6 18,9 13 7 27 15 WNW 1013,2 10 0 1,4
19.07.2017 22:00:00 21,7 19,6 20,4 21,6 18,9 10 5 58 32 W 1012,6 12 0 8,6
19.07.2017 21:00:00 25,0 18,7 23,6 21,6 18,9 29 15 44 24 NW 1012,3 19 0 0,0
19.07.2017 20:00:00 26,3 19,4 26,2 21,5 18,9 12 6 22 12 NW 1011,6 18 0 0,0
19.07.2017 19:00:00 26,9 19,0 28,8 21,5 18,9 14 8 21 11 NNW 1011,7 34 0 0,0
19.07.2017 18:00:00 27,3 18,9 29,1 21,4 18,9 15 8 24 13 NW 1011,8 20 9 0,0
19.07.2017 17:00:00 28,4 19,9 37,5 21,3 18,9 8 4 21 11 WNW 1011,8 20 37 0,0
19.07.2017 16:00:00 28,2 20,7 36,1 21,2 18,9 11 6 23 12 NW 1011,8 17 30 0,0
19.07.2017 15:00:00 28,0 20,3 38,2 21,2 18,9 14 7 22 12 WNW 1011,7 20 46 0,0
19.07.2017 14:00:00 26,7 21,2 30,1 21,1 18,8 8 4 19 10 NW 1011,7 16 13 0,0
19.07.2017 13:00:00 25,1 20,6 25,5 21,1 18,9 13 7 21 11 NW 1011,9 18 10 0,0
19.07.2017 12:00:00 26,8 19,9 31,5 21,1 18,8 7 4 17 9 Z 1011,7 32 7 0,0
19.07.2017 11:00:00 25,8 21,2 24,4 21,1 18,9 5 3 11 6 OZO 1011,7 20 17 0,2
19.07.2017 10:00:00 23,5 20,0 22,9 21,1 18,8 8 5 18 10 O 1011,0 20 0 0,0
19.07.2017 09:00:00 23,4 19,5 21,6 21,1 18,8 8 4 13 7 WNW 1011,8 20 43 0,0
19.07.2017 08:00:00 23,0 19,4 19,6 21,2 18,8 3 1 18 10 O 1010,6 32 10 0,0
19.07.2017 07:00:00 22,1 18,9 19,1 21,3 18,8 16 9 25 13 OZO 1009,9 38 0 0,0
19.07.2017 06:00:00 22,2 18,4 19,1 21,3 18,9 17 9 24 13 ZO 1010,3 39 0 0,0
19.07.2017 05:00:00 21,5 18,9 18,3 21,3 18,9 11 6 17 9 O 1010,3 31 0 0,0
19.07.2017 04:00:00 22,1 18,1 19,0 21,3 18,8 8 4 31 17 OZO 1011,2 43 0 0,0
19.07.2017 03:00:00 22,0 17,6 19,1 21,4 18,8 18 10 34 18 OZO 1011,0 48 0 0,0
19.07.2017 02:00:00 21,9 17,5 19,3 21,4 18,8 18 10 42 23 ZZW 1014,6 45 0 0,2
19.07.2017 01:00:00 22,8 17,9 19,1 21,4 18,8 14 7 36 19 ZZW 1013,7 20 0 0,0
19.07.2017 00:00:00 22,3 17,7 19,5 21,4 18,8 18 10 49 27 NNW 1011,0 44 0 1,4
18.07.2017 23:00:00 23,4 18,3 20,4 21,4 18,8 7 4 45 25 W 1014,8 3,3 0 1,4
18.07.2017 22:00:00 28,4 16,3 23,4 21,4 18,8 21 11 49 26 ZZW 1011,9 20 0 0,0
18.07.2017 21:00:00 29,0 16,5 25,3 21,3 18,8 20 11 33 18 OZO 1008,9 60 25 0,0
18.07.2017 20:00:00 31,4 18,0 29,7 21,2 18,8 23 12 39 21 ZO 1008,8 51 60 0,0
18.07.2017 19:00:00 33,0 18,8 32,9 21,1 18,8 22 12 44 24 ZO 1008,6 40 60 0,0
18.07.2017 18:00:00 33,6 18,1 36,5 21,0 18,8 26 14 41 22 ZO 1008,9 40 60 0,0
18.07.2017 17:00:00 33,5 17,6 37,4 20,8 18,8 26 14 40 22 ZO 1009,3 18 60 0,0
18.07.2017 16:00:00 34,0 17,7 43,9 20,7 18,8 25 14 41 22 ZO 1009,8 16 60 0,0
18.07.2017 15:00:00 33,4 18,7 41,9 20,6 18,8 24 13 36 20 OZO 1010,3 39 60 0,0
18.07.2017 14:00:00 32,3 18,9 44,0 20,6 18,8 22 12 37 20 ZO 1011,0 17 60 0,0
18.07.2017 13:00:00 31,3 19,3 41,8 20,5 18,8 21 11 37 20 ZO 1011,3 20 60 0,0
18.07.2017 12:00:00 29,6 19,0 37,5 20,5 18,8 23 13 37 20 OZO 1011,7 36 60 0,0
18.07.2017 11:00:00 28,0 18,7 32,0 20,5 18,8 19 10 35 19 ZO 1011,9 36 60 0,0
18.07.2017 10:00:00 25,6 18,5 24,6 20,6 18,8 18 10 31 17 OZO 1012,1 29 60 0,0
18.07.2017 09:00:00 22,6 16,6 19,5 20,7 18,8 21 11 31 17 OZO 1012,3 34 60 0,0
18.07.2017 08:00:00 20,5 15,1 16,3 20,7 18,8 19 10 27 15 OZO 1012,1 52 52 0,0
18.07.2017 07:00:00 18,6 13,9 16,1 20,8 18,8 15 8 30 16 OZO 1012,3 59 0 0,0
18.07.2017 06:00:00 18,8 13,2 15,4 20,8 18,8 20 11 26 14 OZO 1012,2 60 0 0,0
18.07.2017 05:00:00 18,7 12,2 15,4 20,9 18,8 13 7 21 12 OZO 1012,4 60 0 0,0
18.07.2017 04:00:00 19,2 12,0 15,8 20,9 18,8 16 9 23 13 OZO 1012,5 60 0 0,0
18.07.2017 03:00:00 19,8 11,8 16,2 21,0 18,8 16 9 22 12 OZO 1013,0 60 0 0,0
18.07.2017 02:00:00 21,0 12,2 17,4 21,0 18,8 17 9 26 14 OZO 1012,9 60 0 0,0
18.07.2017 01:00:00 22,0 12,5 17,2 21,1 18,8 19 11 25 13 O 1013,2 60 0 0,0
18.07.2017 00:00:00 22,5 11,9 17,7 21,1 18,7 16 8 22 12 OZO 1013,4 60 0 0,0
17.07.2017 23:00:00 23,6 13,7 19,0 21,1 18,8 14 8 24 13 OZO 1013,6 60 0 0,0
17.07.2017 22:00:00 26,6 13,3 21,7 21,1 18,8 15 8 34 18 ZO 1013,5 60 2 0,0
17.07.2017 21:00:00 28,7 14,1 24,4 21,0 18,8 19 10 34 18 ZO 1013,5 56 25 0,0
17.07.2017 20:00:00 30,2 15,1 28,0 20,9 18,8 15 8 29 15 OZO 1012,8 53 11 0,0
17.07.2017 19:00:00 31,3 15,3 29,7 20,8 18,8 13 7 30 16 ZZO 1013,0 59 19 0,0
17.07.2017 18:00:00 33,9 15,8 35,0 20,7 18,8 21 11 28 15 ZZO 1013,8 49 53 0,0
17.07.2017 17:00:00 34,6 15,5 40,0 20,6 18,8 15 8 33 18 OZO 1013,9 18 60 0,0
17.07.2017 16:00:00 33,5 14,1 39,7 20,5 18,8 17 9 31 17 OZO 1013,6 49 60 0,0
17.07.2017 15:00:00 33,5 15,0 - - - 21 11 31 17 O 1014,6 50 - 0,0
17.07.2017 14:00:00 32,2 15,2 43,0 20,2 18,7 19 11 36 19 O 1015,1 55 60 0,0
17.07.2017 13:00:00 30,9 13,7 41,0 20,2 18,7 20 11 36 19 OZO 1015,6 57 60 0,0
17.07.2017 12:00:00 29,1 15,2 38,9 20,2 18,7 18 10 28 15 O 1016,0 60 60 0,0
17.07.2017 11:00:00 27,4 15,7 32,4 20,2 18,8 14 8 25 14 OZO 1016,7 60 60 0,0
17.07.2017 10:00:00 25,2 16,9 24,4 20,2 18,7 16 9 23 12 OZO 1016,9 38 60 0,0
17.07.2017 09:00:00 22,6 17,1 19,3 20,3 18,7 12 6 21 11 ZO 1017,2 38 60 0,0
17.07.2017 08:00:00 20,0 17,2 15,3 20,3 18,7 15 8 20 11 OZO 1017,5 52 60 0,0

tt = temperatuur
td = dauwpunt
tt 5cm = temperatuur 5cm
tt -20cm = temperatuur -20cm
tt -100cm = temperatuur -100cm
ff = windsnelheid
fx = windstoten
dd = windrichting
ppp = luchtdruk
vv = zicht
sd = Zonneschijnduur
rr = neerslag

Weerstations in de omgeving